THY8XJ LTFM-LTCK

Flight info

Callsign THY8XJ
Flight time 1h 41m
Altitude 37000
Route ASMAP UT341 BAG UG8 EZS UG81 BAYIR
Aircraft A20N/M-SDE2E3FGHIRWXY/LB1

Departure

Time 2026-05-06 13:26
Airport İstanbul Airport (LTFM)

Arrival

Time 2026-05-06 15:08
Airport Muş Airport (LTCK)
Time Latitude Longitude Altitude Speed Heading
2026-05-06 13:08 41.26163 28.73625 334 ft 0 kts 107°
2026-05-06 13:19 41.26170 28.73597 333 ft 3 kts 107°
2026-05-06 13:19 41.26178 28.73564 333 ft 3 kts 107°
2026-05-06 13:19 41.26185 28.73530 333 ft 3 kts 96°
2026-05-06 13:19 41.26176 28.73501 333 ft 3 kts 40°
2026-05-06 13:20 41.26164 28.73493 333 ft 0 kts 16°
2026-05-06 13:22 41.26165 28.73493 333 ft 0 kts 16°
2026-05-06 13:22 41.26170 28.73495 333 ft 1 kts 10°
2026-05-06 13:22 41.26186 28.73493 333 ft 5 kts 348°
2026-05-06 13:23 41.26205 28.73450 333 ft 5 kts 274°
2026-05-06 13:23 41.26208 28.73387 333 ft 9 kts 274°
2026-05-06 13:23 41.26209 28.73272 333 ft 15 kts 270°
2026-05-06 13:23 41.26208 28.73117 333 ft 13 kts 270°
2026-05-06 13:24 41.26207 28.72977 333 ft 17 kts 269°
2026-05-06 13:24 41.26205 28.72790 333 ft 22 kts 269°
2026-05-06 13:24 41.26204 28.72651 333 ft 9 kts 270°
2026-05-06 13:24 41.26204 28.72636 333 ft 0 kts 270°
2026-05-06 13:25 41.26204 28.72627 333 ft 2 kts 270°
2026-05-06 13:25 41.26204 28.72594 333 ft 5 kts 270°
2026-05-06 13:25 41.26221 28.72545 333 ft 6 kts 321°
2026-05-06 13:25 41.26370 28.72522 333 ft 51 kts 358°
2026-05-06 13:26 41.27000 28.72517 334 ft 125 kts
2026-05-06 13:26 41.28068 28.72500 451 ft 172 kts
2026-05-06 13:26 41.29294 28.72489 1168 ft 179 kts
2026-05-06 13:26 41.30526 28.72481 2063 ft 179 kts
2026-05-06 13:27 41.31766 28.72463 2991 ft 178 kts 356°
2026-05-06 13:27 41.33052 28.72403 3434 ft 193 kts
2026-05-06 13:27 41.34428 28.72836 3783 ft 215 kts
2026-05-06 13:27 41.35983 28.72642 4225 ft 234 kts 336°
2026-05-06 13:28 41.37340 28.71332 4719 ft 253 kts 312°
2026-05-06 13:28 41.38181 28.69197 5023 ft 263 kts 285°
2026-05-06 13:28 41.38261 28.66719 5312 ft 267 kts 271°
2026-05-06 13:28 41.38178 28.64211 5590 ft 269 kts 271°
2026-05-06 13:29 41.38116 28.61677 6134 ft 276 kts 272°
2026-05-06 13:29 41.37968 28.59123 7058 ft 280 kts 260°
2026-05-06 13:29 41.37051 28.56802 7860 ft 292 kts 230°
2026-05-06 13:29 41.35336 28.55257 8619 ft 302 kts 200°
2026-05-06 13:30 41.33239 28.54902 9361 ft 307 kts 179°
2026-05-06 13:30 41.31112 28.55021 10047 ft 312 kts 177°
2026-05-06 13:30 41.28894 28.55152 10613 ft 321 kts 178°
2026-05-06 13:30 41.26598 28.55294 10937 ft 338 kts 173°
2026-05-06 13:31 41.24326 28.56241 11396 ft 345 kts 149°
2026-05-06 13:31 41.22440 28.58212 12103 ft 342 kts 134°
2026-05-06 13:31 41.20744 28.60454 12747 ft 345 kts 132°
2026-05-06 13:31 41.19029 28.62750 13358 ft 349 kts 133°
2026-05-06 13:32 41.17281 28.65044 13971 ft 352 kts 133°
2026-05-06 13:32 41.15530 28.67303 14564 ft 355 kts 134°
2026-05-06 13:32 41.13763 28.69622 15135 ft 358 kts 131°
2026-05-06 13:32 41.12135 28.72139 15701 ft 360 kts 125°
2026-05-06 13:33 41.10699 28.74840 16241 ft 362 kts 121°
2026-05-06 13:33 41.09331 28.77636 16775 ft 365 kts 120°
2026-05-06 13:33 41.07944 28.80503 17280 ft 369 kts 120°
2026-05-06 13:33 41.06559 28.83351 17823 ft 372 kts 120°
2026-05-06 13:34 41.05156 28.86215 18341 ft 375 kts 120°
2026-05-06 13:34 41.03681 28.89093 18853 ft 379 kts 127°
2026-05-06 13:34 41.01657 28.91346 19265 ft 387 kts 152°
2026-05-06 13:34 40.99106 28.92382 19736 ft 390 kts 176°
2026-05-06 13:35 40.96399 28.92226 20249 ft 390 kts 188°
2026-05-06 13:35 40.93681 28.91790 20705 ft 393 kts 188°
2026-05-06 13:35 40.90966 28.91372 21140 ft 397 kts 188°
2026-05-06 13:35 40.88222 28.91079 21569 ft 401 kts 184°
2026-05-06 13:36 40.85616 28.91043 21979 ft 404 kts 180°
2026-05-06 13:36 40.82805 28.91226 22403 ft 407 kts 178°
2026-05-06 13:36 40.79991 28.91463 22827 ft 410 kts 177°
2026-05-06 13:36 40.77110 28.91709 23234 ft 413 kts 178°
2026-05-06 13:37 40.74254 28.91948 23641 ft 415 kts 178°
2026-05-06 13:37 40.71349 28.92188 24025 ft 418 kts 178°
2026-05-06 13:37 40.68456 28.92422 24395 ft 421 kts 178°
2026-05-06 13:37 40.65510 28.92658 24772 ft 424 kts 178°
2026-05-06 13:38 40.62584 28.92987 25141 ft 427 kts 170°
2026-05-06 13:38 40.59792 28.94362 25450 ft 430 kts 147°
2026-05-06 13:38 40.57590 28.96939 25792 ft 428 kts 125°
2026-05-06 13:38 40.56204 29.00326 26100 ft 422 kts 103°
2026-05-06 13:39 40.55777 29.04119 26403 ft 415 kts 83°
2026-05-06 13:39 40.56048 29.07832 26761 ft 413 kts 78°
2026-05-06 13:39 40.56387 29.11606 27087 ft 416 kts 78°
2026-05-06 13:39 40.56708 29.15372 27405 ft 419 kts 79°
2026-05-06 13:40 40.57108 29.20491 27849 ft 422 kts 79°
2026-05-06 13:40 40.57297 29.23043 28059 ft 424 kts 80°
2026-05-06 13:40 40.57576 29.26897 28361 ft 427 kts 80°
2026-05-06 13:40 40.57848 29.30750 28666 ft 429 kts 80°
2026-05-06 13:41 40.58122 29.34657 28962 ft 431 kts 80°
2026-05-06 13:41 40.58397 29.38610 29273 ft 433 kts 80°
2026-05-06 13:41 40.58671 29.42544 29569 ft 435 kts 80°
2026-05-06 13:41 40.58999 29.46479 29864 ft 436 kts 78°
2026-05-06 13:42 40.59309 29.50486 30129 ft 441 kts 85°
2026-05-06 13:42 40.59002 29.54504 30363 ft 449 kts 95°
2026-05-06 13:42 40.58482 29.58528 30646 ft 450 kts 96°
2026-05-06 13:42 40.57944 29.62614 30897 ft 452 kts 96°
2026-05-06 13:43 40.57426 29.66655 31168 ft 453 kts 96°
2026-05-06 13:43 40.56916 29.70762 31419 ft 454 kts 96°
2026-05-06 13:43 40.56420 29.74825 31639 ft 456 kts 96°
2026-05-06 13:43 40.55922 29.78977 31858 ft 458 kts 95°
2026-05-06 13:44 40.55430 29.83094 32109 ft 459 kts 95°
2026-05-06 13:44 40.54940 29.87198 32425 ft 458 kts 95°
2026-05-06 13:44 40.54445 29.91338 32760 ft 456 kts 95°
2026-05-06 13:44 40.53959 29.95408 33087 ft 455 kts 96°
2026-05-06 13:45 40.53466 29.99525 33396 ft 454 kts 95°
2026-05-06 13:45 40.52486 30.07651 33925 ft 453 kts 95°
2026-05-06 13:45 40.51989 30.11755 34193 ft 453 kts 95°
2026-05-06 13:46 40.51500 30.15799 34438 ft 452 kts 95°
2026-05-06 13:46 40.51000 30.19909 34657 ft 452 kts 95°
2026-05-06 13:46 40.50505 30.23956 34863 ft 452 kts 95°
2026-05-06 13:46 40.50006 30.28038 35072 ft 452 kts 95°
2026-05-06 13:47 40.49511 30.32074 35273 ft 452 kts 95°
2026-05-06 13:47 40.49014 30.36118 35441 ft 453 kts 96°
2026-05-06 13:47 40.48507 30.40223 35604 ft 454 kts 95°
2026-05-06 13:47 40.48004 30.44284 35761 ft 455 kts 96°
2026-05-06 13:48 40.47493 30.48397 35917 ft 456 kts 96°
2026-05-06 13:48 40.46987 30.52456 36050 ft 456 kts 96°
2026-05-06 13:48 40.46472 30.56580 36195 ft 457 kts 96°
2026-05-06 13:48 40.45954 30.60705 36339 ft 458 kts 96°
2026-05-06 13:49 40.45442 30.64778 36496 ft 458 kts 96°
2026-05-06 13:49 40.44919 30.68931 36641 ft 459 kts 96°
2026-05-06 13:49 40.44394 30.73077 36766 ft 460 kts 96°
2026-05-06 13:49 40.43869 30.77215 36887 ft 461 kts 97°
2026-05-06 13:50 40.43348 30.81316 37011 ft 462 kts 97°
2026-05-06 13:50 40.42814 30.85498 37053 ft 463 kts 97°
2026-05-06 13:50 40.41752 30.93786 37062 ft 464 kts 97°
2026-05-06 13:51 40.40681 31.02095 37068 ft 464 kts 97°
2026-05-06 13:51 40.39598 31.10453 37069 ft 464 kts 97°
2026-05-06 13:52 40.38518 31.18734 37065 ft 464 kts 97°
2026-05-06 13:52 40.37341 31.27024 37064 ft 465 kts 99°
2026-05-06 13:53 40.35963 31.35328 37063 ft 466 kts 99°
2026-05-06 13:53 40.34597 31.43573 37061 ft 466 kts 99°
2026-05-06 13:54 40.33235 31.51854 37056 ft 466 kts 99°
2026-05-06 13:54 40.31876 31.60119 37049 ft 467 kts 99°
2026-05-06 13:55 40.30504 31.68432 37047 ft 467 kts 100°
2026-05-06 13:55 40.29128 31.76730 37045 ft 468 kts 100°
2026-05-06 13:56 40.27741 31.85053 37051 ft 469 kts 99°
2026-05-06 13:56 40.26273 31.93340 37048 ft 470 kts 103°
2026-05-06 13:57 40.24502 32.01554 37033 ft 470 kts 103°
2026-05-06 13:57 40.22709 32.09771 37040 ft 470 kts 103°
2026-05-06 13:58 40.20915 32.17989 37041 ft 471 kts 103°
2026-05-06 13:58 40.19118 32.26201 37053 ft 471 kts 103°
2026-05-06 13:59 40.17329 32.34356 37037 ft 471 kts 103°
2026-05-06 13:59 40.15518 32.42584 37047 ft 472 kts 103°
2026-05-06 14:00 40.13702 32.50805 37042 ft 472 kts 103°
2026-05-06 14:00 40.11883 32.59007 37039 ft 472 kts 103°
2026-05-06 14:01 40.10059 32.67213 37045 ft 473 kts 104°
2026-05-06 14:01 40.08218 32.75449 37039 ft 473 kts 104°
2026-05-06 14:02 40.06215 32.83620 37054 ft 474 kts 108°
2026-05-06 14:02 40.03859 32.91656 37064 ft 475 kts 109°
2026-05-06 14:03 40.02665 32.95693 37069 ft 476 kts 109°
2026-05-06 14:03 39.99094 33.07772 37076 ft 476 kts 109°
2026-05-06 14:04 39.96719 33.15793 37060 ft 476 kts 109°
2026-05-06 14:04 39.94329 33.23846 37054 ft 476 kts 109°
2026-05-06 14:05 39.91943 33.31871 37061 ft 476 kts 109°
2026-05-06 14:05 39.89552 33.39884 37052 ft 476 kts 109°
2026-05-06 14:06 39.87161 33.47881 37054 ft 476 kts 109°
2026-05-06 14:06 39.84758 33.55881 37054 ft 477 kts 109°
2026-05-06 14:07 39.82591 33.63990 37039 ft 476 kts 103°
2026-05-06 14:07 39.80902 33.72295 37032 ft 476 kts 103°
2026-05-06 14:08 39.79229 33.80647 37046 ft 475 kts 103°
2026-05-06 14:08 39.77492 33.88863 37038 ft 476 kts 106°
2026-05-06 14:09 39.75255 33.97012 37057 ft 477 kts 109°
2026-05-06 14:09 39.72966 34.05043 37031 ft 476 kts 109°
2026-05-06 14:10 39.71825 34.09045 37192 ft 477 kts 109°
2026-05-06 14:10 39.70668 34.13103 37121 ft 475 kts 109°
2026-05-06 14:10 39.68391 34.21084 37077 ft 475 kts 109°
2026-05-06 14:11 39.66084 34.29157 37076 ft 476 kts 109°
2026-05-06 14:11 39.63776 34.37207 37066 ft 476 kts 109°
2026-05-06 14:12 39.61473 34.45216 37062 ft 477 kts 109°
2026-05-06 14:12 39.59151 34.53270 37059 ft 477 kts 109°
2026-05-06 14:13 39.56824 34.61311 37064 ft 477 kts 109°
2026-05-06 14:13 39.54494 34.69343 37057 ft 477 kts 110°
2026-05-06 14:14 39.52163 34.77352 37065 ft 477 kts 110°
2026-05-06 14:14 39.49815 34.85392 37065 ft 478 kts 110°
2026-05-06 14:15 39.47469 34.93406 37073 ft 479 kts 110°
2026-05-06 14:15 39.45110 35.01445 37068 ft 478 kts 110°
2026-05-06 14:16 39.42756 35.09446 37065 ft 478 kts 110°
2026-05-06 14:16 39.40384 35.17474 37071 ft 478 kts 110°
2026-05-06 14:17 39.38038 35.25514 37073 ft 479 kts 110°
2026-05-06 14:17 39.35714 35.33553 37068 ft 479 kts 110°
2026-05-06 14:18 39.33392 35.41548 37069 ft 479 kts 110°
2026-05-06 14:18 39.31057 35.49568 37075 ft 479 kts 110°
2026-05-06 14:19 39.28709 35.57605 37062 ft 479 kts 110°
2026-05-06 14:19 39.26349 35.65654 37064 ft 480 kts 111°
2026-05-06 14:20 39.24006 35.73634 37044 ft 480 kts 111°
2026-05-06 14:20 39.21632 35.81686 37040 ft 481 kts 111°
2026-05-06 14:21 39.19260 35.89716 37054 ft 479 kts 111°
2026-05-06 14:21 39.16908 35.97698 37066 ft 480 kts 109°
2026-05-06 14:22 39.15020 36.05986 37074 ft 480 kts 102°
2026-05-06 14:22 39.13840 36.14427 37072 ft 479 kts 98°
2026-05-06 14:23 39.12780 36.22969 37077 ft 480 kts 99°
2026-05-06 14:23 39.11706 36.31490 37073 ft 480 kts 99°
2026-05-06 14:24 39.10604 36.40105 37072 ft 481 kts 99°
2026-05-06 14:24 39.09512 36.48577 37078 ft 481 kts 99°
2026-05-06 14:25 39.08418 36.57002 37083 ft 481 kts 99°
2026-05-06 14:25 39.07315 36.65448 37077 ft 481 kts 100°
2026-05-06 14:26 39.06202 36.73916 37073 ft 481 kts 100°
2026-05-06 14:26 39.05085 36.82374 37075 ft 481 kts 100°
2026-05-06 14:27 39.03963 36.90819 37070 ft 481 kts 100°
2026-05-06 14:27 39.02829 36.99301 37069 ft 481 kts 100°
2026-05-06 14:28 39.01694 37.07758 37074 ft 482 kts 100°
2026-05-06 14:28 39.00550 37.16220 37083 ft 483 kts 101°
2026-05-06 14:29 38.99395 37.24699 37085 ft 483 kts 101°
2026-05-06 14:29 38.98243 37.33127 37081 ft 482 kts 100°
2026-05-06 14:30 38.97074 37.41616 37098 ft 482 kts 101°
2026-05-06 14:30 38.95910 37.50037 37091 ft 482 kts 101°
2026-05-06 14:31 38.94734 37.58496 37094 ft 482 kts 101°
2026-05-06 14:31 38.93548 37.66972 37096 ft 482 kts 102°
2026-05-06 14:32 38.92363 37.75400 37103 ft 482 kts 102°
2026-05-06 14:32 38.91172 37.83835 37096 ft 483 kts 102°
2026-05-06 14:33 38.89970 37.92282 37094 ft 483 kts 102°
2026-05-06 14:33 38.88763 38.00743 37090 ft 483 kts 102°
2026-05-06 14:34 38.87549 38.09193 37092 ft 483 kts 102°
2026-05-06 14:34 38.86327 38.17659 37098 ft 483 kts 102°
2026-05-06 14:35 38.85104 38.26075 37093 ft 483 kts 102°
2026-05-06 14:35 38.83871 38.34532 37089 ft 482 kts 102°
2026-05-06 14:36 38.82640 38.42921 37081 ft 482 kts 102°
2026-05-06 14:36 38.81399 38.51345 37077 ft 482 kts 102°
2026-05-06 14:37 38.80157 38.59732 37073 ft 482 kts 102°
2026-05-06 14:37 38.78901 38.68166 37070 ft 482 kts 103°
2026-05-06 14:38 38.77636 38.76631 37065 ft 482 kts 103°
2026-05-06 14:38 38.76373 38.85025 37061 ft 482 kts 103°
2026-05-06 14:39 38.75112 38.93407 37059 ft 482 kts 103°
2026-05-06 14:39 38.73872 39.01800 37059 ft 482 kts 103°
2026-05-06 14:40 38.72623 39.10245 37062 ft 483 kts 103°
2026-05-06 14:40 38.71371 39.18664 37061 ft 483 kts 102°
2026-05-06 14:41 38.70557 39.27148 37071 ft 484 kts 95°
2026-05-06 14:41 38.70168 39.35740 37075 ft 485 kts 95°
2026-05-06 14:42 38.69790 39.44317 37068 ft 485 kts 95°
2026-05-06 14:42 38.69385 39.52954 37068 ft 485 kts 95°
2026-05-06 14:43 38.68990 39.61560 37041 ft 486 kts 95°
2026-05-06 14:43 38.68797 39.65813 36825 ft 485 kts 96°
2026-05-06 14:43 38.68605 39.70095 36607 ft 482 kts 96°
2026-05-06 14:44 38.68410 39.74366 36389 ft 480 kts 96°
2026-05-06 14:44 38.68216 39.78613 36125 ft 478 kts 96°
2026-05-06 14:44 38.68020 39.82835 35706 ft 477 kts 96°
2026-05-06 14:45 38.67621 39.91317 34480 ft 481 kts 96°
2026-05-06 14:45 38.67418 39.95586 33778 ft 485 kts 96°
2026-05-06 14:45 38.67211 39.99886 33118 ft 490 kts 96°
2026-05-06 14:45 38.67000 40.04232 32398 ft 495 kts 97°
2026-05-06 14:46 38.66787 40.08611 31784 ft 496 kts 97°
2026-05-06 14:46 38.66574 40.12992 31238 ft 494 kts 97°
2026-05-06 14:46 38.66360 40.17342 30690 ft 490 kts 97°
2026-05-06 14:46 38.66146 40.21645 30152 ft 485 kts 97°
2026-05-06 14:47 38.65932 40.25932 29614 ft 480 kts 97°
2026-05-06 14:47 38.65722 40.30159 29106 ft 475 kts 97°
2026-05-06 14:47 38.65514 40.34330 28630 ft 469 kts 97°
2026-05-06 14:47 38.65310 40.38448 28142 ft 464 kts 96°
2026-05-06 14:48 38.65106 40.42520 27672 ft 458 kts 96°
2026-05-06 14:48 38.64904 40.46536 27194 ft 453 kts 96°
2026-05-06 14:48 38.64702 40.50514 26747 ft 448 kts 96°
2026-05-06 14:48 38.64498 40.54496 26275 ft 443 kts 96°
2026-05-06 14:49 38.64299 40.58382 25797 ft 439 kts 96°
2026-05-06 14:49 38.64099 40.62238 25340 ft 434 kts 96°
2026-05-06 14:49 38.63899 40.66067 24876 ft 429 kts 96°
2026-05-06 14:49 38.63733 40.69263 24496 ft 425 kts 96°
2026-05-06 14:50 38.63532 40.73079 24046 ft 420 kts 96°
2026-05-06 14:50 38.63335 40.76820 23590 ft 416 kts 96°
2026-05-06 14:50 38.63140 40.80481 23135 ft 412 kts 96°
2026-05-06 14:50 38.62942 40.84129 22687 ft 408 kts 96°
2026-05-06 14:51 38.62725 40.87755 22240 ft 404 kts 96°
2026-05-06 14:51 38.62504 40.91367 21794 ft 400 kts 96°
2026-05-06 14:51 38.62286 40.94924 21350 ft 397 kts 96°
2026-05-06 14:51 38.62072 40.98434 20917 ft 394 kts 96°
2026-05-06 14:52 38.61855 41.01973 20468 ft 391 kts 96°
2026-05-06 14:52 38.61641 41.05461 20024 ft 389 kts 96°
2026-05-06 14:52 38.61430 41.08889 19584 ft 386 kts 96°
2026-05-06 14:52 38.61216 41.12355 19136 ft 383 kts 96°
2026-05-06 14:53 38.61005 41.15764 18692 ft 381 kts 96°
2026-05-06 14:53 38.60794 41.19145 18252 ft 379 kts 96°
2026-05-06 14:53 38.60584 41.22513 17811 ft 377 kts 96°
2026-05-06 14:53 38.60377 41.25818 17375 ft 374 kts 96°
2026-05-06 14:54 38.60167 41.29145 16932 ft 372 kts 96°
2026-05-06 14:54 38.59953 41.32509 16484 ft 370 kts 96°
2026-05-06 14:54 38.59744 41.35784 16053 ft 368 kts 96°
2026-05-06 14:54 38.59686 41.39036 15580 ft 368 kts 83°
2026-05-06 14:55 38.60473 41.42155 15135 ft 367 kts 60°
2026-05-06 14:55 38.61960 41.44829 14700 ft 364 kts 51°
2026-05-06 14:55 38.63549 41.47359 14263 ft 362 kts 51°
2026-05-06 14:55 38.65125 41.49871 13830 ft 360 kts 51°
2026-05-06 14:56 38.66699 41.52425 13380 ft 358 kts 52°
2026-05-06 14:56 38.68214 41.54918 13032 ft 350 kts 52°
2026-05-06 14:56 38.69693 41.57369 12560 ft 339 kts 52°
2026-05-06 14:56 38.71109 41.59721 12230 ft 322 kts 52°
2026-05-06 14:57 38.72453 41.61955 11928 ft 307 kts 52°
2026-05-06 14:57 38.73643 41.64141 11618 ft 293 kts 65°
2026-05-06 14:57 38.74149 41.66607 11276 ft 280 kts 90°
2026-05-06 14:57 38.73879 41.69042 10927 ft 269 kts 113°
2026-05-06 14:58 38.73082 41.71202 10601 ft 266 kts 120°
2026-05-06 14:58 38.72210 41.73299 10280 ft 265 kts 120°
2026-05-06 14:58 38.71342 41.75396 9962 ft 264 kts 120°
2026-05-06 14:58 38.70503 41.77459 9628 ft 260 kts 120°
2026-05-06 14:59 38.69678 41.79515 9300 ft 253 kts 120°
2026-05-06 14:59 38.68877 41.81526 8986 ft 252 kts 120°
2026-05-06 14:59 38.68080 41.83527 8671 ft 251 kts 121°
2026-05-06 14:59 38.67040 41.85290 8342 ft 246 kts 146°
2026-05-06 15:00 38.65510 41.86180 8068 ft 240 kts 167°
2026-05-06 15:00 38.63923 41.86698 7999 ft 229 kts 167°
2026-05-06 15:00 38.62448 41.87360 7986 ft 221 kts 148°
2026-05-06 15:00 38.61414 41.88812 7861 ft 226 kts 116°
2026-05-06 15:01 38.61161 41.90779 7720 ft 231 kts 83°
2026-05-06 15:01 38.61796 41.92677 7577 ft 235 kts 49°
2026-05-06 15:01 38.63116 41.93856 7429 ft 235 kts 16°
2026-05-06 15:01 38.64732 41.93968 7278 ft 231 kts 342°
2026-05-06 15:02 38.66094 41.92987 7117 ft 220 kts 308°
2026-05-06 15:02 38.66763 41.91322 7021 ft 204 kts 280°
2026-05-06 15:02 38.67001 41.89568 7015 ft 198 kts 275°
2026-05-06 15:02 38.67169 41.87837 7014 ft 197 kts 274°
2026-05-06 15:03 38.67377 41.86091 7015 ft 198 kts 280°
2026-05-06 15:03 38.67774 41.84433 6987 ft 189 kts 288°
2026-05-06 15:03 38.68295 41.82915 6986 ft 181 kts 292°
2026-05-06 15:03 38.68838 41.81519 6789 ft 169 kts 292°
2026-05-06 15:04 38.69350 41.80221 6508 ft 158 kts 292°
2026-05-06 15:04 38.69823 41.79005 6239 ft 147 kts 292°
2026-05-06 15:04 38.70265 41.77855 6011 ft 143 kts 291°
2026-05-06 15:04 38.70698 41.76722 5810 ft 142 kts 291°
2026-05-06 15:05 38.71133 41.75581 5603 ft 142 kts 291°
2026-05-06 15:05 38.71589 41.74456 5293 ft 142 kts 294°
2026-05-06 15:05 38.72046 41.73341 5000 ft 140 kts 291°
2026-05-06 15:05 38.72446 41.72202 4777 ft 140 kts 290°
2026-05-06 15:06 38.72872 41.71091 4593 ft 140 kts 293°
2026-05-06 15:06 38.73302 41.69970 4428 ft 139 kts 291°
2026-05-06 15:06 38.73724 41.68856 4276 ft 139 kts 291°
2026-05-06 15:06 38.74154 41.67738 4168 ft 136 kts 292°
2026-05-06 15:07 38.74505 41.66829 4167 ft 89 kts 296°
2026-05-06 15:07 38.74735 41.66214 4167 ft 69 kts 294°
2026-05-06 15:07 38.74937 41.65699 4166 ft 59 kts 300°
2026-05-06 15:07 38.75110 41.65258 4166 ft 51 kts 296°
2026-05-06 15:08 38.75263 41.64870 4167 ft 45 kts 295°
2026-05-06 15:08 38.75391 41.64540 4167 ft 32 kts 297°
2026-05-06 15:08 38.75484 41.64391 4167 ft 19 kts 358°
2026-05-06 15:08 38.75595 41.64446 4168 ft 15 kts 26°
2026-05-06 15:09 38.75687 41.64503 4169 ft 13 kts 28°
2026-05-06 15:09 38.75762 41.64554 4170 ft 10 kts 27°
2026-05-06 15:09 38.75825 41.64595 4170 ft 9 kts 29°
2026-05-06 15:09 38.75858 41.64642 4171 ft 3 kts 70°
2026-05-06 15:10 38.75860 41.64652 4171 ft 0 kts 70°